Le Mars, IA

3:00 PM CST on February 12, 2016 (GMT -0600)
Le Mars Municipal

Weather History for KLRJ - March, 2014

Change the Weather History Date:

Wednesday, March 19, 2014

  Actual Average Record
Temperature  
Mean Temperature 38 °F -  
Max Temperature 48 °F 47 °F 77 °F (1976)
Min Temperature 28 °F 26 °F 4 °F (1989)
Degree Days  
Heating Degree Days 27    
Moisture  
Dew Point 27 °F    
Average Humidity 71    
Maximum Humidity 93    
Minimum Humidity 34    
Precipitation  
Precipitation 0.00 in - - ()
Sea Level Pressure  
Sea Level Pressure 29.98 in    
Wind  
Wind Speed 13 mph (NW)    
Max Wind Speed 20 mph    
Max Gust Speed 28 mph    
Visibility 10 miles    
Events      
Averages and records for this station are not official NWS values.
T = Trace of Precipitation, MM = Missing Value Source: NWS Daily Summary

Daily Weather History Graph

Daily Weather History Graph

Search for Another Location

Airport or City:

Trip Planner

Search our weather history database for the weather conditions in past years. The results will help you decide how hot, cold, wet, or windy it might be!

Date:

Astronomy

Mar. 19, 2014 Rise Set
Actual Time 7:29 AM CDT 7:35 PM CDT
Civil Twilight 7:01 AM CDT 8:04 PM CDT
Nautical Twilight 6:28 AM CDT 8:37 PM CDT
Astronomical Twilight 5:54 AM CDT 9:10 PM CDT
Moon 11:00 PM CDT (3/19) 8:51 AM CDT (3/19)
Length of Visible Light 13h 02m
Length of Day
12h 06m
Waning Gibbous, 91% of the Moon is Illuminated
Mar 19
Waning Gibbous
Mar 23
Last Quarter
Mar 30
New
Apr 7
First Quarter
Apr 15
Full

Hourly Weather History & Observations

Time (CDT) Temp. Windchill Dew Point Humidity Pressure Visibility Wind Dir Wind Speed Gust Speed Precip Events Conditions
12:15 AM 32.0 °F 21.6 °F 28.4 °F 87% 29.85 in 10.0 mi North 15.0 mph 24.2 mph N/A   Overcast
12:35 AM 32.0 °F 21.6 °F 28.4 °F 87% 29.85 in 10.0 mi North 15.0 mph 20.7 mph N/A   Overcast
12:55 AM 32.0 °F 20.8 °F 28.4 °F 87% 29.85 in 10.0 mi NNW 17.3 mph 24.2 mph N/A   Overcast
1:15 AM 32.0 °F 20.8 °F 28.4 °F 87% 29.86 in 10.0 mi NNW 17.3 mph 24.2 mph N/A   Overcast
1:35 AM 32.0 °F 22.1 °F 30.2 °F 93% 29.87 in 7.0 mi NNW 13.8 mph 24.2 mph N/A   Overcast
1:50 AM 32.0 °F 22.5 °F 30.2 °F 93% 29.87 in 7.0 mi NNW 12.7 mph - N/A   Overcast
2:15 AM 32.0 °F 20.1 °F 30.2 °F 93% 29.88 in 6.0 mi NNW 19.6 mph 27.6 mph N/A   Overcast
2:35 AM 33.8 °F 22.8 °F 28.4 °F 81% 29.88 in 8.0 mi NNW 18.4 mph 25.3 mph N/A   Overcast
2:55 AM 33.8 °F 23.5 °F 28.4 °F 81% 29.89 in 10.0 mi NNW 16.1 mph 24.2 mph N/A   Overcast
3:15 AM 32.0 °F 20.5 °F 28.4 °F 87% 29.89 in 10.0 mi NNW 18.4 mph 25.3 mph N/A   Overcast
3:35 AM 32.0 °F 22.1 °F 28.4 °F 87% 29.90 in 10.0 mi NNW 13.8 mph 23.0 mph N/A   Overcast
3:55 AM 32.0 °F 22.1 °F 28.4 °F 87% 29.90 in 10.0 mi NNW 13.8 mph - N/A   Overcast
4:15 AM 32.0 °F 22.5 °F 28.4 °F 87% 29.90 in 10.0 mi NNW 12.7 mph 19.6 mph N/A   Overcast
4:35 AM 32.0 °F 22.5 °F 28.4 °F 87% 29.91 in 10.0 mi NW 12.7 mph - N/A   Overcast
4:55 AM 32.0 °F 22.1 °F 26.6 °F 80% 29.92 in 10.0 mi NW 13.8 mph - N/A   Overcast
5:15 AM 32.0 °F 22.5 °F 26.6 °F 80% 29.93 in 10.0 mi NW 12.7 mph 19.6 mph N/A   Overcast
5:35 AM 32.0 °F 21.2 °F 26.6 °F 80% 29.94 in 10.0 mi NW 16.1 mph - N/A   Overcast
5:55 AM 32.0 °F 22.5 °F 26.6 °F 80% 29.95 in 10.0 mi NW 12.7 mph - N/A   Overcast
6:15 AM 32.0 °F 22.5 °F 26.6 °F 80% 29.95 in 10.0 mi NW 12.7 mph 21.9 mph N/A   Overcast
6:35 AM 30.2 °F 20.8 °F 24.8 °F 80% 29.96 in 10.0 mi NW 11.5 mph 18.4 mph N/A   Overcast
6:55 AM 28.4 °F 18.5 °F 24.8 °F 86% 29.97 in 10.0 mi NW 11.5 mph - N/A   Scattered Clouds
7:15 AM 28.4 °F 18.5 °F 24.8 °F 86% 29.98 in 10.0 mi NW 11.5 mph - N/A   Partly Cloudy
7:35 AM 28.4 °F 18.0 °F 24.8 °F 86% 29.99 in 10.0 mi WNW 12.7 mph - N/A   Mostly Cloudy
7:55 AM 28.4 °F 19.1 °F 24.8 °F 86% 29.99 in 10.0 mi WNW 10.4 mph 17.3 mph N/A   Overcast
8:15 AM 28.4 °F 18.5 °F 26.6 °F 93% 30.00 in 10.0 mi NW 11.5 mph - N/A   Overcast
8:35 AM 28.4 °F 18.5 °F 26.6 °F 93% 30.00 in 10.0 mi NW 11.5 mph - N/A   Overcast
8:55 AM 30.2 °F 20.8 °F 26.6 °F 86% 30.00 in 10.0 mi NW 11.5 mph - N/A   Overcast
9:15 AM 30.2 °F 21.3 °F 26.6 °F 86% 30.00 in 10.0 mi NW 10.4 mph - N/A   Overcast
9:35 AM 32.0 °F 23.6 °F 28.4 °F 87% 30.01 in 10.0 mi WNW 10.4 mph 17.3 mph N/A   Overcast
9:55 AM 32.0 °F 22.1 °F 28.4 °F 87% 30.02 in 10.0 mi NW 13.8 mph - N/A   Overcast
10:15 AM 33.8 °F 23.5 °F 28.4 °F 81% 30.02 in 10.0 mi NW 16.1 mph - N/A   Mostly Cloudy
10:35 AM 35.6 °F 26.6 °F 30.2 °F 81% 30.03 in 10.0 mi NW 13.8 mph - N/A   Mostly Cloudy
10:55 AM 37.4 °F 28.9 °F 30.2 °F 75% 30.04 in 10.0 mi NW 13.8 mph - N/A   Mostly Cloudy
11:15 AM 39.2 °F 30.5 °F 30.2 °F 70% 30.04 in 10.0 mi NW 16.1 mph - N/A   Overcast
11:35 AM 39.2 °F 31.2 °F 30.2 °F 70% 30.05 in 10.0 mi WNW 13.8 mph - N/A   Overcast
11:55 AM 39.2 °F 31.2 °F 30.2 °F 70% 30.05 in 10.0 mi NW 13.8 mph 20.7 mph N/A   Mostly Cloudy
12:15 PM 41.0 °F 33.5 °F 30.2 °F 65% 30.05 in 10.0 mi NW 13.8 mph - N/A   Scattered Clouds
12:35 PM 39.2 °F 31.2 °F 28.4 °F 65% 30.05 in 10.0 mi NW 13.8 mph - N/A   Scattered Clouds
12:55 PM 39.2 °F 31.2 °F 28.4 °F 65% 30.04 in 10.0 mi WNW 13.8 mph - N/A   Mostly Cloudy
1:15 PM 41.0 °F 33.5 °F 28.4 °F 61% 30.04 in 10.0 mi NW 13.8 mph - N/A   Mostly Cloudy
1:35 PM 42.8 °F 36.2 °F 26.6 °F 53% 30.04 in 10.0 mi West 12.7 mph 19.6 mph N/A   Mostly Cloudy
1:55 PM 42.8 °F 35.4 °F 26.6 °F 53% 30.03 in 10.0 mi WNW 15.0 mph - N/A   Scattered Clouds
2:15 PM 44.6 °F 38.4 °F 28.4 °F 53% 30.03 in 10.0 mi West 12.7 mph 21.9 mph N/A   Scattered Clouds
2:35 PM 44.6 °F 37.8 °F 26.6 °F 49% 30.02 in 10.0 mi WNW 15.0 mph 20.7 mph N/A   Partly Cloudy
2:55 PM 44.6 °F 39.2 °F 26.6 °F 49% 30.02 in 10.0 mi NW 10.4 mph 21.9 mph N/A   Clear
3:15 PM 46.4 °F 40.4 °F 26.6 °F 46% 30.02 in 10.0 mi NW 13.8 mph 21.9 mph N/A   Clear
3:35 PM 46.4 °F 39.8 °F 24.8 °F 43% 30.02 in 10.0 mi WNW 16.1 mph - N/A   Clear
3:55 PM 46.4 °F 41.1 °F 26.6 °F 46% 30.01 in 10.0 mi West 11.5 mph 21.9 mph N/A   Clear
4:15 PM 46.4 °F 41.1 °F 24.8 °F 43% 30.01 in 10.0 mi WNW 11.5 mph 20.7 mph N/A   Clear
4:35 PM 48.2 °F - 23.0 °F 37% 30.01 in 10.0 mi WNW 13.8 mph - N/A   Clear
4:55 PM 48.2 °F - 21.2 °F 34% 30.00 in 10.0 mi WNW 12.7 mph - N/A   Clear
5:15 PM 48.2 °F - 21.2 °F 34% 30.00 in 10.0 mi WNW 13.8 mph 20.7 mph N/A   Clear
5:35 PM 48.2 °F - 21.2 °F 34% 30.00 in 10.0 mi West 15.0 mph - N/A   Clear
5:55 PM 48.2 °F - 23.0 °F 37% 30.00 in 10.0 mi West 9.2 mph - N/A   Partly Cloudy
6:15 PM 48.2 °F - 24.8 °F 40% 30.00 in 10.0 mi WNW 12.7 mph - N/A   Mostly Cloudy
6:35 PM 48.2 °F - 24.8 °F 40% 30.00 in 10.0 mi West 8.1 mph 15.0 mph N/A   Overcast
6:55 PM 48.2 °F - 24.8 °F 40% 30.00 in 10.0 mi West 11.5 mph - N/A   Overcast
7:15 PM 46.4 °F 41.9 °F 26.6 °F 46% 30.00 in 10.0 mi West 9.2 mph 16.1 mph N/A   Mostly Cloudy
7:35 PM 44.6 °F 40.2 °F 26.6 °F 49% 30.00 in 10.0 mi West 8.1 mph - N/A   Clear
7:55 PM 42.8 °F 38.6 °F 28.4 °F 57% 30.00 in 10.0 mi West 6.9 mph - N/A   Clear
8:15 PM 41.0 °F 36.4 °F 28.4 °F 61% 30.01 in 10.0 mi West 6.9 mph - N/A   Mostly Cloudy
8:35 PM 39.2 °F 35.0 °F 28.4 °F 65% 30.01 in 10.0 mi West 5.8 mph - N/A   Overcast
8:55 PM 39.2 °F 35.9 °F 30.2 °F 70% 30.02 in 10.0 mi WNW 4.6 mph - N/A   Overcast
9:15 PM 39.2 °F - 30.2 °F 70% 30.02 in 10.0 mi Calm Calm - N/A   Overcast
9:35 PM 37.4 °F 34.9 °F 30.2 °F 75% 30.02 in 10.0 mi West 3.5 mph - N/A   Mostly Cloudy
9:55 PM 35.6 °F - 30.2 °F 81% 30.02 in 10.0 mi Calm Calm - N/A   Mostly Cloudy
10:15 PM 33.8 °F - 30.2 °F 87% 30.03 in 10.0 mi Calm Calm - N/A   Scattered Clouds
10:35 PM 32.0 °F - 28.4 °F 87% 30.03 in 10.0 mi Calm Calm - N/A   Clear
10:55 PM 32.0 °F - 28.4 °F 87% 30.04 in 10.0 mi Calm Calm - N/A   Clear
11:15 PM 32.0 °F - 28.4 °F 87% 30.04 in 10.0 mi Calm Calm - N/A   Clear
11:35 PM 32.0 °F - 30.2 °F 93% 30.04 in 10.0 mi Calm Calm - N/A   Clear
11:55 PM 32.0 °F - 30.2 °F 93% 30.03 in 10.0 mi Calm Calm - N/A   Clear